Regional Weather Roundup
Issued by NWS New Orleans/Baton Rouge, LA

Home | Current Version | Previous Version | Text Only | Print | Product List | Glossary On
Versions: 1 2 3 4 5 6 7 8 9 10 11 12 13 14 15 16 17 18 19 20 21 22 23 24 25 26 27 28 29 30 31 32 33 34 35 36 37 38 39 40 41 42 43 44 45 46 47 48 49 50
823
ASUS44 KLIX 300610
RWRLIX
NEW ORLEANS REGIONAL WEATHER ROUNDUP
NATIONAL WEATHER SERVICE NEW ORLEANS LA
1200 AM CST FRI JAN 30 2015

NOTE: "FAIR" INDICATES FEW OR NO CLOUDS BELOW 12,000 FEET WITH NO
      SIGNIFICANT WEATHER AND/OR OBSTRUCTIONS TO VISIBILITY.
      SKY/WX - SKY CONDITION AND SIGNIFICANT WEATHER.
      TMP - AIR TEMPERATURE.     DP    - DEWPOINT TEMPERATURE.
      RH  - RELATIVE HUMIDITY.   PRES  - PRESSURE.
      HI  - HEAT INDEX.          WCI   - WIND CHILL INDEX.

*  THESE STATIONS ARE NOT NWS OR FAA STATIONS AND ARE NOT UNDER
   NWS QUALITY CONTROL.

LAZ038-040-048-061>063-065>067-069-300700-
SOUTHEAST LOUISIANA

CITY           SKY/WX    TMP DP  RH WIND       PRES   REMARKS
N.O. AUDUBON     N/A     58  58 100 MISG        N/A
6HR MIN TEMP:  58; 6HR MAX TEMP:  65;

N.O. INTL ARPT PTCLDY    60  55  83 W7        30.23S
6HR MIN TEMP:  60; 6HR MAX TEMP:  70;

N.O. LAKEFRONT MOCLDY    60  55  83 W10       30.23S
6HR MIN TEMP:  60; 6HR MAX TEMP:  70;

N.O. DOWNTOWN* NOT AVBL
SLIDELL        MOCLDY    58  53  84 CALM      30.22S
6HR MIN TEMP:  56; 6HR MAX TEMP:  65;

BATON ROUGE    CLOUDY    62  50  64 N9        30.25R
6HR MIN TEMP:  60; 6HR MAX TEMP:  68;

BOOTHVILLE     CLEAR     62  60  93 W7        30.24F
6HR MIN TEMP:  61; 6HR MAX TEMP:  63;

BELLE CHASSE   PTCLDY    59  55  87 W5        30.23S
6HR MIN TEMP:  59; 6HR MAX TEMP:  66;

BOGALUSA*        N/A     60  51  72 N9        30.26R
6HR MIN TEMP:  52; 6HR MAX TEMP:  67;

GALLIANO*      CLEAR     55  54  98 SW6       30.25S
6HR MIN TEMP:  54; 6HR MAX TEMP:  65;

NEW ROADS*       N/A     60  45  57 N20G25    30.27R
6HR MIN TEMP:  55; 6HR MAX TEMP:  66;

GONZALES*        N/A     61  58  91 W5        30.24S
6HR MIN TEMP:  60; 6HR MAX TEMP:  70;

HAMMOND*       CLOUDY    57  54  88 NW3       30.26R
HOUMA*         FOG       57  57 100 SW3       30.25S VSB 1/4
6HR MIN TEMP:  56; 6HR MAX TEMP:  66;

PORT FOURCHON* CLEAR     63  61  94 W8        30.28S

$$

MSZ070-080>082-300700-
SOUTHERN MISSISSIPPI

CITY           SKY/WX    TMP DP  RH WIND       PRES   REMARKS
MCCOMB         CLOUDY    58  44  60 N12G22    30.28R
6HR MIN TEMP:  57; 6HR MAX TEMP:  69;

GULFPORT       MOCLDY    60  56  86 W6        30.21S
6HR MIN TEMP:  59; 6HR MAX TEMP:  62;

BILOXI         PTCLDY    57  57 100 VRB2      30.21S
6HR MIN TEMP:  56; 6HR MAX TEMP:  61;

PASCAGOULA     PTCLDY    58  56  93 W3        30.21S
6HR MIN TEMP:  58; 6HR MAX TEMP:  62;


$$

COASTAL OBSERVATIONS
LAKE AND NEARSHORE STATIONS

STATION/POSITION TIME  TEMP    WIND        PRES    WAVE
                       AIR SEA DIR/SP/G            HT/PER
                 (UTC) (F)     (DEG/KT/KT) (MB)    (FT/S)
PASCAGOULA       0600   59     260/ 11/ 14 1022.3
WAVELAND YACHT   0600   60     280/  5/  6 1022.2
GRAND ISLE       0600   63 64  270/  8/ 12 1024.6
SOUTHWEST PASS   0600   60 48  280/ 12/ 14 1024.5
NEW CANAL        0600   62 57  250/  6/  9 1023.9
SHELL BEACH      0600   60 57  240/  9/ 11 1023.4

OFFSHORE STATIONS

STATION/POSITION TIME  TEMP    WIND        PRES    WAVE
                       AIR SEA DIR/SP/G            HT/PER
                 (UTC) (F)     (DEG/KT/KT) (MB)    (FT/S)
64 S DAUPHIN ISL 0549   69 68  260/ 16/ 19 1023.7    2/ 3

$$




USA.gov is the U.S. government's official web portal to all federal, state and local government web resources and services.